Tracking 20383 objects as of 24-Feb-2020
HD Live streaming from Space Station
objects crossing your sky now
Track the group of recently launched Starlink satellites

COSMOS 2024 (ETALON 2)

Track COSMOS 2024 (ETALON 2) now!
COSMOS 2024 (ETALON 2) is classified as:


NORAD ID: 20026
Int'l Code: 1989-039C
Perigee: 19,082.7 km
Apogee: 19,175.1 km
Inclination: 65.5 °
Period: 675.4 minutes
Semi major axis: 25499 km
RCS: 1.2589 m2 (large)
Launch date: May 31, 1989
Source: Commonwealth of Independent States (former USSR) (CIS)
Launch site: TYURATAM MISSILE AND SPACE COMPLEX (TTMTR)
aabbcc
Your satellite tracking list
Your tracking list is empty




NASA's NSSDC Master Catalog

Two Line Element Set (TLE):
1 20026U 89039C   20055.11810615 -.00000059  00000-0  00000+0 0  9998
2 20026  65.4565  29.0168 0018120 221.8526  91.0876  2.13204433239352
Source of the keplerian elements: AFSPC